Retour au catalogue

STARLINK-11490

ActifCommunicationsVLEO
NORAD 62219·PAYLOAD·🇺🇸 United States

Lancé Dec 5, 2024 depuis Vandenberg Space Force Base

Loading…

Prochains Passages (prochaines 24 heures)

TLE

FraisSource: CelesTrak SupGP

Époque: Sep 14, 2026, 21:00 UTC

1 62219C 24231B   26257.87548611  .00049445  00000+0  40737-3 0  2570
2 62219  53.1568 248.7138 0001138  89.2085 297.2808 15.69680300    13

Suivez STARLINK-11490 en temps réel avec AllMySat

Download on the App Store